Previsão horária em Almak

Hoje, 25 Junho, Sexta-feira

Tempo Temperatura Precipitação Vento Pressão Humidade
00:00 +22°C° 0 mm 1 m/s 677 mmHg 54%
01:00 +22°C° 0 mm 1 m/s 677 mmHg 56%
02:00 +21°C° 0 mm 1 m/s 677 mmHg 58%
03:00 +21°C° 0 mm 1 m/s 676 mmHg 61%
04:00 +22°C° 0 mm 1 m/s 676 mmHg 59%
05:00 +23°C° 0 mm 1 m/s 677 mmHg 58%
06:00 +24°C° 0 mm 1 m/s 677 mmHg 56%
07:00 +25°C° 0 mm 1 m/s 677 mmHg 51%
08:00 +27°C° 0 mm 1 m/s 677 mmHg 45%
09:00 +29°C° 0 mm 1 m/s 677 mmHg 39%
10:00 +30°C° 0 mm 2 m/s 677 mmHg 37%
11:00 +31°C° 0 mm 2 m/s 677 mmHg 35%
12:00 +34°C° 0 mm 3 m/s 677 mmHg 33%
13:00 +34°C° 0 mm 3 m/s 677 mmHg 33%
14:00 +34°C° 0 mm 3 m/s 677 mmHg 32%
15:00 +35°C° 0 mm 3 m/s 677 mmHg 32%
16:00 +34°C° 0 mm 2 m/s 677 mmHg 36%
17:00 +31°C° 0 mm 2 m/s 677 mmHg 40%
18:00 +30°C° 0 mm 1 m/s 676 mmHg 44%
19:00 +28°C° 0 mm 2 m/s 676 mmHg 47%
20:00 +26°C° 0 mm 2 m/s 676 mmHg 50%
21:00 +24°C° 0 mm 2 m/s 676 mmHg 53%
22:00 +24°C° 0 mm 2 m/s 676 mmHg 54%
23:00 +23°C° 0 mm 2 m/s 676 mmHg 55%

Amanhã, 26 Junho, Sábado

Tempo Temperatura Precipitação Vento Pressão Humidade
00:00 +23°C° 0 mm 2 m/s 676 mmHg 56%
01:00 +23°C° 0 mm 2 m/s 675 mmHg 57%
02:00 +21°C° 0 mm 2 m/s 675 mmHg 59%
03:00 +22°C° 0 mm 1 m/s 675 mmHg 60%
04:00 +23°C° 0 mm 1 m/s 675 mmHg 60%
05:00 +23°C° 0 mm 1 m/s 675 mmHg 59%
06:00 +24°C° 0 mm 1 m/s 675 mmHg 59%
07:00 +26°C° 0 mm 1 m/s 675 mmHg 53%
08:00 +27°C° 0 mm 2 m/s 676 mmHg 48%
09:00 +29°C° 0 mm 2 m/s 676 mmHg 42%
10:00 +31°C° 0 mm 2 m/s 676 mmHg 40%
11:00 +32°C° 0 mm 2 m/s 676 mmHg 37%
12:00 +34°C° 0 mm 3 m/s 676 mmHg 35%
13:00 +34°C° 0 mm 2 m/s 676 mmHg 35%
14:00 +34°C° 0 mm 2 m/s 676 mmHg 34%
15:00 +34°C° 0 mm 2 m/s 676 mmHg 34%
16:00 +32°C° 0 mm 2 m/s 675 mmHg 39%
17:00 +31°C° 0 mm 2 m/s 675 mmHg 44%
18:00 +30°C° 0 mm 1 m/s 675 mmHg 49%
19:00 +28°C° 0 mm 1 m/s 675 mmHg 51%
20:00 +26°C° 0 mm 2 m/s 675 mmHg 54%
21:00 +25°C° 0 mm 2 m/s 675 mmHg 56%
22:00 +24°C° 0.1 mm 2 m/s 675 mmHg 59%
23:00 +24°C° 0.1 mm 2 m/s 675 mmHg 61%

Depois de amanhã, 27 Junho, Domingo

Tempo Temperatura Precipitação Vento Pressão Humidade
00:00 +23°C° 0.1 mm 2 m/s 675 mmHg 64%
01:00 +23°C° 0 mm 2 m/s 675 mmHg 63%
02:00 +23°C° 0 mm 2 m/s 675 mmHg 63%
03:00 +23°C° 0 mm 1 m/s 674 mmHg 62%
04:00 +24°C° 0 mm 1 m/s 675 mmHg 61%
05:00 +24°C° 0 mm 1 m/s 675 mmHg 59%
06:00 +25°C° 0 mm 1 m/s 675 mmHg 57%
07:00 +26°C° 0 mm 2 m/s 676 mmHg 54%
08:00 +27°C° 0 mm 2 m/s 676 mmHg 51%
09:00 +28°C° 0 mm 2 m/s 677 mmHg 48%
10:00 +29°C° 0 mm 2 m/s 677 mmHg 47%
11:00 +30°C° 0 mm 2 m/s 677 mmHg 46%
12:00 +30°C° 0 mm 2 m/s 677 mmHg 45%
13:00 +31°C° 0 mm 2 m/s 677 mmHg 43%
14:00 +31°C° 0 mm 2 m/s 677 mmHg 42%
15:00 +32°C° 0 mm 2 m/s 677 mmHg 40%
16:00 +31°C° 0.1 mm 2 m/s 677 mmHg 43%
17:00 +31°C° 0.1 mm 2 m/s 677 mmHg 46%
18:00 +30°C° 0.1 mm 2 m/s 677 mmHg 49%
19:00 +28°C° 0.1 mm 1 m/s 677 mmHg 54%
20:00 +26°C° 0.1 mm 1 m/s 676 mmHg 60%
21:00 +24°C° 0.1 mm 1 m/s 676 mmHg 65%
22:00 +24°C° 0.1 mm 2 m/s 676 mmHg 66%
23:00 +24°C° 0.1 mm 2 m/s 676 mmHg 67%

28 Junho, Segunda-feira

Tempo Temperatura Precipitação Vento Pressão Humidade
00:00 +23°C° 0.1 mm 2 m/s 676 mmHg 68%
01:00 +23°C° 0 mm 2 m/s 676 mmHg 69%
02:00 +21°C° 0 mm 2 m/s 676 mmHg 70%
03:00 +21°C° 0 mm 2 m/s 676 mmHg 71%
04:00 +21°C° 0.2 mm 2 m/s 676 mmHg 72%
05:00 +22°C° 0.2 mm 1 m/s 676 mmHg 73%
06:00 +23°C° 0.2 mm 1 m/s 677 mmHg 74%
07:00 +24°C° 0.1 mm 2 m/s 677 mmHg 68%
08:00 +26°C° 0.1 mm 2 m/s 677 mmHg 62%
09:00 +27°C° 0.1 mm 2 m/s 678 mmHg 56%
10:00 +28°C° 0 mm 3 m/s 678 mmHg 53%
11:00 +29°C° 0 mm 3 m/s 678 mmHg 50%
12:00 +31°C° 0 mm 3 m/s 678 mmHg 47%
13:00 +31°C° 0.3 mm 3 m/s 678 mmHg 47%
14:00 +31°C° 0.3 mm 3 m/s 678 mmHg 46%
15:00 +31°C° 0.3 mm 2 m/s 678 mmHg 46%
16:00 +30°C° 0.8 mm 2 m/s 677 mmHg 50%
17:00 +29°C° 0.8 mm 2 m/s 677 mmHg 54%
18:00 +28°C° 0.8 mm 2 m/s 677 mmHg 58%
19:00 +26°C° 3.4 mm 2 m/s 677 mmHg 67%
20:00 +22°C° 3.4 mm 3 m/s 677 mmHg 76%
21:00 +20°C° 3.4 mm 3 m/s 677 mmHg 85%
22:00 +20°C° 0.6 mm 3 m/s 677 mmHg 82%
23:00 +20°C° 0.6 mm 3 m/s 676 mmHg 80%

29 Junho, Terça-feira

Tempo Temperatura Precipitação Vento Pressão Humidade
00:00 +20°C° 0.6 mm 2 m/s 676 mmHg 78%
01:00 +20°C° 0 mm 2 m/s 676 mmHg 77%
02:00 +20°C° 0 mm 2 m/s 676 mmHg 75%
03:00 +20°C° 0 mm 2 m/s 676 mmHg 74%
04:00 +20°C° 0 mm 2 m/s 676 mmHg 75%
05:00 +20°C° 0 mm 2 m/s 677 mmHg 77%
06:00 +22°C° 0 mm 1 m/s 677 mmHg 79%
07:00 +23°C° 0 mm 2 m/s 677 mmHg 75%
08:00 +24°C° 0 mm 2 m/s 678 mmHg 70%
09:00 +25°C° 0 mm 2 m/s 678 mmHg 66%
10:00 +26°C° 0 mm 2 m/s 678 mmHg 62%
11:00 +27°C° 0 mm 3 m/s 678 mmHg 58%
12:00 +28°C° 0 mm 3 m/s 678 mmHg 54%
13:00 +29°C° 0.2 mm 3 m/s 678 mmHg 54%
14:00 +29°C° 0.2 mm 3 m/s 677 mmHg 53%
15:00 +29°C° 0.2 mm 3 m/s 677 mmHg 52%
16:00 +27°C° 1.3 mm 3 m/s 677 mmHg 61%
17:00 +26°C° 1.3 mm 2 m/s 677 mmHg 70%
18:00 +24°C° 1.3 mm 2 m/s 676 mmHg 79%
19:00 +23°C° 0.3 mm 1 m/s 676 mmHg 81%
20:00 +22°C° 0.3 mm 1 m/s 677 mmHg 82%
21:00 +21°C° 0.3 mm 1 m/s 677 mmHg 84%
22:00 +21°C° 0.1 mm 1 m/s 676 mmHg 84%
23:00 +21°C° 0.1 mm 1 m/s 676 mmHg 84%

30 Junho, Quarta-feira

Tempo Temperatura Precipitação Vento Pressão Humidade
00:00 +21°C° 0.1 mm 1 m/s 676 mmHg 84%
01:00 +21°C° 0 mm 1 m/s 676 mmHg 84%
02:00 +21°C° 0 mm 1 m/s 676 mmHg 83%
03:00 +21°C° 0 mm 1 m/s 676 mmHg 83%
04:00 +21°C° 0.3 mm 1 m/s 676 mmHg 84%
05:00 +21°C° 0.3 mm 1 m/s 676 mmHg 85%
06:00 +21°C° 0.3 mm 1 m/s 677 mmHg 86%
07:00 +22°C° 0 mm 1 m/s 677 mmHg 83%
08:00 +23°C° 0 mm 2 m/s 677 mmHg 79%
09:00 +24°C° 0 mm 2 m/s 678 mmHg 76%
10:00 +24°C° 0.1 mm 2 m/s 678 mmHg 74%
11:00 +24°C° 0.1 mm 2 m/s 678 mmHg 73%
12:00 +25°C° 0.1 mm 2 m/s 678 mmHg 71%
13:00 +25°C° 0.3 mm 2 m/s 678 mmHg 71%
14:00 +25°C° 0.3 mm 1 m/s 677 mmHg 71%
15:00 +25°C° 0.3 mm 1 m/s 677 mmHg 71%
16:00 +25°C° 0.2 mm 1 m/s 677 mmHg 74%
17:00 +24°C° 0.2 mm 1 m/s 677 mmHg 77%
18:00 +24°C° 0.2 mm 1 m/s 677 mmHg 79%
19:00 +23°C° 2.1 mm 1 m/s 677 mmHg 83%
20:00 +20°C° 2.1 mm 2 m/s 677 mmHg 87%
21:00 +19°C° 2.1 mm 2 m/s 678 mmHg 91%
22:00 +19°C° 1.7 mm 2 m/s 678 mmHg 92%
23:00 +20°C° 1.7 mm 1 m/s 678 mmHg 94%
Mostrar mais